Flag for Germany Weather past 2 weeks in Flensburg, Schleswig-Holstein, Germany

Now
58 °F

Light rain. Dense fog.


Feels Like: 58 °F
Forecast: 49 / 57 °F
Wind: 5 mph from West

Location: Schleswig

Current Time: Sep 21, 2014 at 2:43:27 AM

Latest Report: Sep 21, 2014 at 2:00 AM


Visibility: 0 mi

Pressure: 29.90 "Hg

Humidity: 99%

Dew point: 58 °F

Location of FlensburgLocation

Historic Weather in Flensburg — Graph

°F

Flensburg temperature yesterday

Maximum temperature yesterday: 70 °F (at 3:00 PM)
Minimum temperature yesterday: 57 °F (at 7:00 AM)
Average temperature yesterday: 61 °F

Past Weeks' High & Low Weather Summary

 TemperatureHumidityPressure
High75 °F (Sep 6, 2:00 PM)100% (Sep 20, 6:00 AM)30.30 "Hg (Sep 20, 6:00 AM)
Low51 °F (Sep 9, 4:00 AM)54% (Sep 17, 3:00 PM)29.88 "Hg (Sep 6, 4:00 PM)
Average62 °F85%30.06 "Hg
* Reported Sep 6 1:00 AM — Sep 21 1:00 AM, Flensburg, Weather by CustomWeather, © 2014

Note: Actual official high and low records may vary slightly from our data, if they occured in-between our weather recording intervals... More about our weather records

Advertising

Flensburg weather history for previous 24 hours

 ConditionsComfort  
Time TempWeatherWind HumidityBarometerVisibility
1:00 AM
Sep 21
59 °FFog.3 mph98%29.90 "Hg1 mi
12:00 AM58 °FFog.2 mph98%29.90 "Hg1 mi
10:00 PM
Sep 20
60 °FFog.1 mph96%29.91 "Hg1 mi
9:00 PM59 °FFog.1 mph95%29.91 "Hg1 mi
8:00 PM61 °FFog.2 mph93%29.91 "Hg2 mi
3:00 PM70 °FPartly sunny.2 mph72%29.92 "Hg3 mi
2:00 PM69 °FPartly sunny.2 mph73%29.93 "Hg3 mi
1:00 PM67 °FScattered clouds.2 mph76%29.94 "Hg3 mi
12:00 PM66 °FFog.3 mph82%29.94 "Hg2 mi
11:00 AM64 °FFog.3 mph89%29.95 "Hg2 mi
10:00 AM61 °FFog.2 mph98%29.95 "Hg1 mi
9:00 AM58 °FFog.2 mph99%29.94 "Hg1 mi
8:00 AM57 °FFog.2 mph99%29.94 "Hg0 mi
7:00 AM57 °FFog.1 mph99%29.93 "Hg0 mi
6:00 AM57 °FFog.2 mph100%29.93 "Hg0 mi
5:00 AM57 °FFog.2 mph99%29.94 "Hg0 mi
4:00 AM57 °FFog.2 mph99%29.94 "Hg1 mi
3:00 AM58 °FFog.2 mph98%29.94 "Hg1 mi
2:00 AM58 °FFog.2 mph98%29.94 "Hg1 mi
Weather by CustomWeather, © 2014

See weather overviewHow to use our weather pages